[TLELIST] Archives

 

Current TLEs

May 6th 2008 PDT

HST 1 20580U 90037B 08125.77380862 +.00000378 +00000-0 +16431-4 0 01417 2 20580 028.4700 246.3671 0003668 277.3862 082.6308 15.00374560788455 ISS (ZARYA) 1 25544U 98067A 08127.33544981 .00017631 00000-0 11436-3 0 4266 2 25544 051.6414 232.0907 0006898 173.9478 286.3400 15.76089149541920 CXO 1 25867U 99040B 08127.91666667 .00000423 00000-0 10000-3 0 1945 2 25867 063.5912 081.5293 6757655 279.4669 359.3736 00.37798619 3478 ____________________________________________________________________ These 2-Line ...Continue Reading

Current TLEs

May 5th 2008 PDT

HST 1 20580U 90037B 08125.57425091 .00000370 00000-0 15838-4 0 1286 2 20580 028.4700 247.6689 0003715 275.2551 084.7612 15.00374393788425 ISS (ZARYA) 1 25544U 98067A 08126.37447654 .00017426 00000-0 11325-3 0 4223 2 25544 051.6416 237.0398 0007022 171.0619 233.1158 15.76053263541778 CXO 1 25867U 99040B 08122.58333333 .00000600 00000-0 10000-3 0 1930 2 25867 063.5494 081.7262 6753394 279.4770 353.4015 00.37809488 3450 ____________________________________________________________________ These 2-Line ...Continue Reading

Current TLEs

May 4th 2008 PDT

HST 1 20580U 90037B 08123.77823359 .00000435 00000-0 20880-4 0 1279 2 20580 028.4700 259.4017 0003781 257.3492 102.6677 15.00374179788152 ISS (ZARYA) 1 25544U 98067A 08125.48613199 .00017282 00000-0 11252-3 0 4187 2 25544 051.6414 241.6159 0006970 167.6749 232.8692 15.76021000541636 CXO 1 25867U 99040B 08122.58333333 .00000600 00000-0 10000-3 0 1930 2 25867 063.5494 081.7262 6753394 279.4770 353.4015 00.37809488 3450 ____________________________________________________________________ These 2-Line ...Continue Reading

Current TLEs

May 3rd 2008 PDT

HST 1 20580U 90037B 08123.77823359 .00000435 00000-0 20880-4 0 1279 2 20580 028.4700 259.4017 0003781 257.3492 102.6677 15.00374179788152 ISS (ZARYA) 1 25544U 98067A 08124.35712779 .00016743 00000-0 10934-3 0 4105 2 25544 051.6413 247.4315 0007109 164.1587 306.5292 15.75978236541456 CXO 1 25867U 99040B 08122.58333333 .00000600 00000-0 10000-3 0 1930 2 25867 063.5494 081.7262 6753394 279.4770 353.4015 00.37809488 3450 ____________________________________________________________________ These 2-Line ...Continue Reading

Current TLEs

May 2nd 2008 PDT

HST 1 20580U 90037B 08122.71392583 .00000416 00000-0 19373-4 0 1265 2 20580 028.4699 266.3418 0003780 246.7735 113.2454 15.00373465787991 ISS (ZARYA) 1 25544U 98067A 08123.53002443 .00017276 00000-0 11281-3 0 4056 2 25544 051.6420 251.6919 0007032 160.3559 294.6189 15.75951347541325 CXO 1 25867U 99040B 08122.58333333 .00000600 00000-0 10000-3 0 1930 2 25867 063.5494 081.7262 6753394 279.4770 353.4015 00.37809488 3450 ____________________________________________________________________ These 2-Line ...Continue Reading

Current TLEs

May 1st 2008 PDT

HST 1 20580U 90037B 08121.51657854 .00000450 00000-0 22017-4 0 1253 2 20580 028.4697 274.1500 0003832 234.3769 125.6456 15.00373087787816 ISS (ZARYA) 1 25544U 98067A 08122.51440601 .00017777 00000-0 11612-3 0 4015 2 25544 051.6422 256.9206 0007243 155.8724 293.2497 15.75917096541163 CXO 1 25867U 99040B 08122.58333333 .00000600 00000-0 10000-3 0 1930 2 25867 063.5494 081.7262 6753394 279.4770 353.4015 00.37809488 3450 ____________________________________________________________________ These 2-Line ...Continue Reading

Current TLEs

April 30th 2008 PDT

HST 1 20580U 90037B 08120.45227024 .00000497 00000-0 25678-4 0 1243 2 20580 028.4694 281.0903 0003832 223.1241 136.9051 15.00372737787657 ISS (ZARYA) 1 25544U 98067A 08121.49202264 .00018473 00000-0 12067-3 0 3953 2 25544 051.6425 262.1850 0007412 153.3318 251.6616 15.75882183541002 CXO 1 25867U 99040B 08119.95833333 .00000541 00000-0 10000-3 0 1925 2 25867 063.5343 081.7860 6748364 279.4823 356.1009 00.37806922 3449 ____________________________________________________________________ These 2-Line ...Continue Reading

Current TLEs

April 29th 2008 PDT

HST 1 20580U 90037B 08118.92232710 +.00000473 +00000-0 +23848-4 0 01252 2 20580 028.4694 291.0659 0003827 207.1275 152.9113 15.00371556787429 ISS (ZARYA) 1 25544U 98067A 08120.14847222 .00018718 00000-0 12249-3 0 3890 2 25544 051.6411 269.1038 0007292 149.4341 188.3381 15.75831812540782 CXO 1 25867U 99040B 08119.95833333 .00000541 00000-0 10000-3 0 1925 2 25867 063.5343 081.7860 6748364 279.4823 356.1009 00.37806922 3449 ____________________________________________________________________ These 2-Line ...Continue Reading

Current TLEs

April 28th 2008 PDT

HST 1 20580U 90037B 08118.85580782 .00000471 00000-0 23626-4 0 1239 2 20580 028.4694 291.4996 0003835 206.4677 153.5717 15.00371493787410 ISS (ZARYA) 1 25544U 98067A 08119.52615216 .00019288 00000-0 12620-3 0 3858 2 25544 051.6419 272.3107 0007433 145.6521 259.3470 15.75809745540696 CXO 1 25867U 99040B 08119.95833333 .00000541 00000-0 10000-3 0 1925 2 25867 063.5343 081.7860 6748364 279.4823 356.1009 00.37806922 3449 ____________________________________________________________________ These 2-Line ...Continue Reading

Current TLEs

April 27th 2008 PDT

HST 1 20580U 90037B 08117.79149913 .00000442 00000-0 21376-4 0 1225 2 20580 028.4694 298.4417 0003869 196.6875 163.3588 15.00370663787257 ISS (ZARYA) 1 25544U 98067A 08117.83266716 .00016521 00000-0 10905-3 0 3780 2 25544 051.6423 281.0302 0007709 142.5164 009.2066 15.75738574540425 CXO 1 25867U 99040B 08117.33333333 .00000454 00000-0 10000-3 0 1912 2 25867 063.5226 081.8430 6743513 279.5019 358.7525 00.37806378 3437 ____________________________________________________________________ These 2-Line ...Continue Reading
  • This mailing list is a public mailing list - anyone may join or leave, at any time.
  • This mailing list is announce-only.

International Space Station (ISS) / Hubble Space Telescope (HST) / Chandra X-Ray Observatory Orbital Data via EMAIL

Privacy Policy:

Private list